Vorticity
7 7 8 8 9 9 8 8 9 9 9 10 9 9 8 7 7 8 9 8 7 7 7 6 5 5 5 5 6 6 6 7 7 7 7 7 7 7 7 7 7 8 7 7 8 7 7 7 6 6 6 6 7 6 7 6 6 6 6 6 6 5 5 5 5 5 5 5 5 6 6 6 6 5 6 7 7 7 6 5 4 3 4 4 4
8 9 10 9 8 7 7 7 7 7 8 10 10 9 7 6 7 8 10 10 10 9 7 7 6 6 6 5 5 5 5 5 6 6 6 6 7 7 7 7 6 7 7 7 7 6 6 7 6 6 5 6 6 6 7 6 6 6 6 6 6 6 6 6 5 5 5 6 6 6 6 6 6 6 8 7 6 5 4 4 3 3 2 2 3
10 10 8 7 6 5 6 6 7 7 9 11 11 10 9 8 8 8 9 11 13 12 8 6 6 6 6 6 6 5 5 4 5 5 5 6 6 6 6 6 6 6 6 6 6 6 6 6 7 6 6 6 5 6 6 6 7 6 7 7 7 7 7 6 6 6 6 6 6 6 6 6 7 8 8 7 6 5 4 3 3 3 3 2 2
8 7 6 6 7 8 9 9 10 11 12 12 10 9 8 8 9 9 10 13 15 14 9 6 7 8 7 7 7 6 6 5 4 4 5 5 5 5 5 5 5 5 6 7 6 7 7 7 8 7 7 6 6 6 5 5 6 6 7 7 7 7 7 6 6 6 6 6 6 5 6 7 8 7 6 6 5 4 3 3 2 2 2 2 3
5 6 7 8 11 12 13 13 13 14 14 12 10 9 8 7 7 8 10 13 14 11 7 6 9 10 8 6 7 7 7 6 5 5 5 5 5 5 4 4 5 4 5 7 7 7 7 7 7 7 7 7 7 7 7 7 6 6 6 6 7 7 7 7 7 7 8 7 7 6 7 7 7 5 5 5 4 3 3 2 1 1 3 3 5
6 8 9 11 13 13 14 14 14 13 13 12 11 10 9 8 7 7 10 13 11 8 7 8 10 10 8 7 8 8 8 7 7 7 6 6 6 5 5 5 5 5 7 7 7 7 7 7 6 7 6 7 7 7 7 7 7 6 6 6 6 6 7 7 8 8 8 8 8 8 8 7 6 6 6 5 4 3 2 2 3 5 6 6 6
7 9 10 11 12 12 11 11 10 10 10 10 9 10 10 9 9 8 10 13 12 10 9 9 9 7 7 8 9 8 8 8 7 7 7 7 7 6 6 6 7 7 7 6 6 5 6 6 6 6 6 7 7 7 7 7 7 7 7 8 8 8 8 8 9 9 9 9 9 8 8 8 7 7 6 4 3 1 2 4 5 5 5 5 4
9 9 9 10 9 8 6 6 5 5 6 7 7 8 8 8 8 8 8 9 11 12 12 11 11 10 8 8 9 8 8 9 8 7 8 9 8 7 7 8 9 8 7 6 5 5 5 5 6 6 6 7 7 7 8 9 9 8 8 9 8 8 7 7 7 7 8 8 9 9 9 8 7 6 5 3 2 3 6 7 6 4 4 3 3
9 8 8 7 5 4 3 3 3 4 5 6 7 7 7 6 5 5 6 6 7 8 9 10 11 13 11 10 9 9 8 8 8 8 8 10 10 9 9 10 10 8 7 6 6 6 5 6 6 6 6 7 7 7 8 8 8 7 7 7 7 7 6 6 6 6 6 6 6 6 6 6 5 5 4 4 5 6 6 5 4 4 3 2 3
7 7 6 5 3 2 2 2 3 4 5 7 9 11 10 10 8 6 6 6 6 6 6 6 7 9 11 12 12 12 11 9 9 9 9 10 12 13 11 10 8 7 7 7 7 7 6 7 6 7 7 7 8 8 7 7 6 6 5 6 7 7 6 6 7 7 7 7 7 6 5 5 4 5 6 7 7 6 4 3 3 2 2 2 3
7 6 5 3 2 2 2 2 2 3 5 8 11 12 12 13 13 13 11 10 8 7 7 6 5 6 7 10 12 15 14 11 10 10 11 12 13 12 10 8 7 7 7 7 7 8 8 8 8 8 8 8 7 6 6 6 6 6 6 6 6 6 6 7 7 8 9 9 9 8 8 7 6 7 8 7 5 3 3 2 2 2 2 2 2
6 5 4 2 1 1 1 1 2 3 4 7 10 10 11 11 12 13 13 14 13 12 11 9 7 6 6 6 9 13 14 13 13 13 11 10 10 9 8 7 6 6 6 7 7 8 8 7 7 7 7 6 6 5 5 5 6 6 6 5 5 6 7 8 10 12 13 13 12 12 11 9 8 7 6 5 3 3 3 2 2 2 1 2 2
6 4 3 2 0 1 2 2 3 3 4 6 9 8 8 9 8 8 10 11 12 13 14 13 10 8 6 5 6 9 11 12 12 10 9 8 7 6 5 4 4 6 7 7 7 7 7 7 6 6 6 6 5 5 5 5 6 5 5 5 6 7 7 8 10 12 15 16 15 16 13 9 7 6 5 4 3 3 3 2 2 1 1 2 2
6 5 3 2 2 2 4 5 5 5 4 5 7 7 7 7 6 5 6 8 9 11 13 14 13 11 9 7 6 6 7 7 7 7 6 6 4 2 2 2 4 8 9 8 8 7 7 7 7 6 6 6 5 5 4 4 4 4 6 6 6 6 5 6 7 9 12 13 15 16 12 7 7 6 4 4 4 4 3 2 2 1 2 1 2
6 5 4 2 2 3 7 9 7 6 4 3 5 6 6 5 5 5 4 5 7 8 10 12 13 13 12 10 8 7 6 6 6 6 5 3 1 0 1 2 6 10 11 10 8 7 7 7 6 5 5 5 5 5 4 4 4 5 5 5 4 3 3 4 5 7 10 12 14 13 9 6 7 5 4 5 4 4 4 3 3 2 2 2 3
6 6 4 3 2 5 8 10 9 8 6 5 4 4 5 4 4 4 4 4 5 6 8 10 11 12 12 12 11 9 8 7 7 6 5 3 1 1 2 4 9 12 11 9 7 7 7 6 5 4 4 4 4 4 4 4 4 4 5 4 3 2 3 5 6 6 8 11 13 13 9 7 8 6 4 5 5 5 5 4 3 2 2 3 3
6 6 5 4 3 5 8 9 9 8 7 6 5 4 4 4 4 3 3 3 4 5 6 8 10 11 11 11 11 11 10 9 9 7 7 6 6 6 7 9 12 13 10 8 6 6 6 5 4 4 4 4 4 4 4 3 3 4 5 4 3 3 4 5 7 8 8 9 12 13 12 10 10 8 7 7 6 6 5 4 3 3 3 4 3
6 6 6 5 4 4 6 6 6 7 8 8 7 6 4 4 4 4 3 3 3 4 4 5 7 8 10 10 11 11 10 10 9 9 10 10 10 10 10 11 11 10 8 6 6 6 5 4 4 4 4 4 4 5 4 3 4 4 5 4 2 2 4 6 7 9 10 9 9 10 12 11 11 10 9 8 6 5 5 4 4 4 4 4 4
6 6 6 5 5 4 4 5 4 4 6 7 7 7 6 5 5 4 4 4 3 4 4 5 5 6 8 9 9 9 9 9 9 9 9 9 9 9 9 8 7 6 6 5 4 4 4 4 5 5 5 4 4 6 5 5 4 5 4 3 3 3 5 7 9 10 11 9 7 7 8 9 10 11 10 9 7 6 5 5 5 6 6 7 9
6 5 6 6 6 5 5 5 4 4 5 6 7 7 8 7 6 5 5 5 4 3 4 5 5 6 7 8 9 8 8 8 8 7 7 6 6 6 6 6 5 5 4 5 4 4 5 5 6 6 6 6 6 7 7 7 6 5 5 4 5 7 10 12 11 11 9 8 7 7 9 10 10 10 10 8 8 7 8 9 11 12 12 11 10
8 7 6 6 7 7 6 5 5 5 5 5 6 7 8 8 8 7 6 6 6 5 4 5 6 6 5 6 7 8 8 8 7 7 7 6 5 4 5 5 6 5 5 6 5 6 6 6 7 8 8 8 8 9 10 10 8 8 8 9 12 14 14 13 11 9 8 7 8 9 11 11 11 11 11 11 12 13 14 14 12 10 7 5 5
11 11 9 8 7 7 6 6 6 6 6 6 6 6 7 7 8 8 8 7 6 7 7 6 6 6 5 5 5 6 7 7 7 7 7 8 8 7 7 7 7 8 8 8 7 8 8 8 8 9 8 9 9 10 11 11 12 13 14 15 15 14 12 9 8 8 7 8 9 11 12 11 11 12 12 11 11 10 9 6 4 2 1 3 7
11 11 11 10 9 8 8 8 9 9 9 9 9 9 8 7 7 8 8 8 7 7 7 7 7 6 6 5 5 6 7 8 8 7 7 7 8 8 8 7 7 8 8 7 7 7 7 7 8 8 8 9 10 10 12 13 14 14 13 12 10 9 8 8 8 9 9 10 11 11 10 9 8 7 6 6 5 4 4 4 3 3 4 8 12
8 8 8 8 9 10 11 11 12 12 12 12 12 12 12 11 10 9 9 9 9 7 6 7 7 7 7 6 5 5 5 8 10 10 9 7 8 9 8 7 6 6 6 6 6 7 8 9 10 10 10 11 11 11 12 12 11 10 9 8 8 8 9 9 10 11 11 11 11 10 8 7 6 6 5 5 6 6 7 6 4 4 6 9 9
5 7 6 7 8 9 9 9 9 9 9 10 10 11 12 12 13 13 13 12 12 12 10 9 8 8 7 6 6 6 5 6 8 11 12 9 7 8 8 8 7 7 7 7 9 11 12 12 11 11 11 11 11 11 11 10 9 9 8 7 8 8 9 9 9 9 9 9 8 8 7 6 5 3 2 3 6 7 5 2 2 4 6 6 6
7 8 8 8 8 7 5 4 3 3 2 2 2 4 5 7 9 10 12 12 13 14 14 15 14 12 10 8 7 7 7 6 5 7 11 11 8 7 8 9 9 9 8 9 11 11 11 11 10 11 11 12 11 10 10 9 8 8 8 8 7 7 7 7 6 6 5 5 4 3 3 2 -1 -2 -1 2 5 5 3 3 4 6 5 3 4
11 9 7 6 5 4 3 2 1 -0 -1 -1 -2 -2 -2 -1 0 1 2 4 4 6 7 9 11 13 14 13 11 9 8 8 6 4 7 10 11 9 9 9 8 8 8 8 8 8 8 8 8 9 9 10 10 9 9 8 8 8 8 8 7 6 5 4 4 5 5 5 5 4 3 2 1 1 3 4 4 3 4 5 6 6 6 4 4
10 7 5 4 4 3 2 1 -0 -1 -1 -0 -0 0 -0 -1 -2 -2 -2 -2 -2 -1 -0 1 2 5 7 10 12 13 12 11 9 6 4 5 9 9 8 7 6 6 6 6 6 5 6 6 6 6 6 7 8 8 8 7 7 6 5 5 5 4 3 3 4 4 4 5 5 6 7 6 6 5 4 4 4 4 4 5 6 6 6 4 3
8 7 6 5 3 1 0 0 1 1 1 1 2 3 3 3 2 1 1 0 -0 -0 0 1 1 2 3 4 7 11 14 13 12 10 7 4 4 5 5 4 5 6 5 5 4 5 6 5 5 6 6 7 7 7 7 6 6 5 4 4 3 3 3 4 5 5 5 5 6 7 8 7 7 6 5 5 5 4 4 5 6 6 6 5 3
6 6 5 3 1 0 0 1 1 2 2 3 4 4 4 5 6 5 5 4 4 4 3 3 3 3 3 3 3 6 11 14 12 10 9 7 5 4 4 4 4 5 5 6 6 6 6 6 6 6 6 6 6 6 6 6 5 5 4 4 4 4 5 5 6 7 7 8 7 7 7 6 6 5 4 4 4 5 5 5 6 7 8 7 4
6 5 4 1 -0 0 1 1 1 2 4 5 6 7 7 7 7 7 7 7 7 6 5 5 5 5 5 4 2 4 8 12 12 10 9 9 8 7 6 5 5 7 7 7 8 8 8 7 7 7 7 7 7 6 6 6 6 6 6 6 5 5 5 5 5 5 6 6 6 5 4 4 4 3 3 3 3 4 5 5 6 7 8 8 5
5 4 3 2 1 1 1 1 2 4 6 7 7 8 8 8 8 8 8 8 9 8 7 7 6 7 7 5 3 5 8 11 12 11 9 8 8 8 8 7 7 8 8 7 8 8 8 7 7 8 7 7 6 6 6 6 5 5 6 6 6 6 6 5 5 4 4 4 3 3 2 2 2 2 2 3 3 3 4 4 4 4 5 6 6
4 2 2 3 1 1 2 2 5 7 7 7 7 6 6 7 7 7 7 7 8 8 8 7 7 8 7 5 6 8 9 11 14 15 13 9 7 7 7 7 7 8 7 7 7 7 7 6 6 6 6 6 5 4 4 4 4 4 4 5 5 5 5 5 5 5 4 3 3 3 3 3 3 3 3 3 4 4 4 4 4 4 4 5 6
2 1 2 2 2 2 4 5 6 6 6 6 6 6 6 7 6 6 6 6 6 7 6 6 8 8 6 6 8 9 10 11 13 15 14 10 8 7 7 6 6 6 6 6 6 7 6 6 6 6 5 6 6 5 5 5 4 4 3 5 6 6 5 4 4 7 7 4 4 3 4 4 3 4 4 4 5 5 5 6 5 5 6 7 8
3 3 3 3 5 6 6 7 6 6 6 6 5 6 6 7 7 7 6 6 6 6 5 6 7 7 6 8 10 9 10 12 12 13 12 9 8 8 7 7 7 7 7 7 7 7 6 6 7 6 5 5 5 6 6 5 5 5 4 6 8 8 8 6 5 6 7 5 4 5 5 6 5 5 6 5 6 7 8 7 7 6 6 7 8
3 3 4 5 7 8 6 5 5 5 5 5 5 7 8 9 9 8 7 7 6 5 5 6 6 6 7 11 11 8 9 11 11 11 10 9 9 8 8 8 9 9 9 8 9 7 6 5 5 6 7 6 5 4 4 4 5 5 5 6 8 8 7 7 7 7 7 5 4 5 5 5 5 6 6 4 3 5 5 4 5 6 6 7 6
3 3 4 5 5 6 5 4 4 4 5 6 8 10 11 11 10 9 8 6 5 5 5 5 7 8 10 12 10 8 9 10 10 10 10 11 11 10 10 11 10 9 8 6 6 6 6 5 3 4 6 7 7 5 3 4 6 4 3 4 7 8 7 7 7 6 6 5 4 5 5 5 5 5 4 3 1 2 3 2 2 4 6 7 6
5 4 4 4 5 4 3 3 4 5 6 8 9 11 11 11 11 9 7 6 6 6 6 7 10 10 10 11 10 9 8 8 10 11 10 9 8 7 7 7 7 6 5 4 5 7 7 8 7 5 4 6 9 6 3 6 9 7 4 4 6 7 7 8 8 7 7 6 5 5 4 4 4 5 4 2 2 1 1 1 1 2 5 6 4
5 4 4 4 4 3 3 4 5 6 7 8 9 11 12 11 11 9 8 8 8 7 8 11 12 11 11 11 10 11 10 8 9 8 6 4 4 3 2 3 4 5 5 6 8 9 8 9 8 7 5 5 7 6 4 6 9 8 6 9 11 8 6 8 9 9 8 7 6 6 6 6 6 6 4 2 2 2 1 2 1 0 3 5 4
4 4 4 3 3 3 3 5 6 6 7 9 10 11 11 11 12 11 10 10 9 10 12 13 12 12 12 11 10 11 9 7 6 4 2 2 2 1 1 3 4 4 5 6 7 7 6 5 5 5 4 4 4 4 4 5 7 7 6 9 11 8 6 8 9 7 6 6 6 5 4 4 5 5 4 2 2 1 1 2 2 1 1 2 3
4 3 3 3 3 4 5 6 7 7 7 8 9 10 11 11 11 11 11 11 12 14 15 13 12 11 10 9 8 8 6 5 3 2 2 3 3 2 -0 1 3 4 4 5 6 5 4 3 4 3 3 4 4 4 4 5 5 6 5 6 8 8 7 8 8 6 4 3 3 4 3 4 5 4 3 4 4 2 2 3 1 -1 1 3 3
4 3 3 4 5 4 5 6 7 7 7 7 9 11 12 11 11 11 12 12 13 14 13 11 10 9 7 5 5 5 4 2 2 2 2 2 2 1 -0 0 2 3 3 4 4 4 2 3 4 3 3 4 3 3 3 2 1 3 4 3 3 3 3 4 4 5 5 6 5 3 2 1 1 -0 1 4 4 1 1 4 3 1 2 6 6
4 3 4 6 6 4 4 5 6 7 6 7 9 11 11 12 12 13 12 12 12 12 9 8 7 6 5 4 5 4 3 2 1 1 1 1 1 2 0 -0 1 3 4 4 4 4 3 3 4 4 4 4 4 4 3 2 1 2 3 3 2 3 5 5 4 4 3 3 5 5 4 5 7 6 6 8 7 6 5 3 2 0 -1 5 9
3 5 6 7 6 6 5 6 7 7 6 6 8 10 11 12 13 12 11 12 11 8 6 5 5 4 4 5 5 4 3 2 1 1 2 2 1 2 1 0 1 2 3 3 3 4 4 4 4 3 3 4 5 5 0 -2 1 1 1 4 4 4 6 5 6 9 9 6 5 4 4 6 6 1 4 9 4 1 5 4 1 0 -0 1 3
5 6 7 7 7 6 6 7 8 7 6 7 9 10 11 10 10 11 11 10 8 5 5 6 4 3 4 5 4 4 3 2 2 2 2 1 1 2 2 2 2 1 2 3 3 5 6 5 4 4 3 2 4 8 4 -1 -1 1 2 3 4 4 9 11 8 5 5 6 5 -1 -4 0 2 3 16 28 17 4 9 16 15 16 19 18 14
7 7 7 8 8 7 6 6 6 6 6 8 9 10 10 9 9 11 11 8 6 6 6 6 4 4 4 4 4 3 2 2 3 2 2 2 3 3 2 2 2 2 2 3 4 5 5 5 7 10 9 3 5 13 12 2 -1 -0 0 4 6 1 1 9 4 -10 -11 1 9 11 13 14 14 14 19 24 20 12 12 12 8 7 12 15 14
7 7 7 8 7 7 7 6 5 5 6 7 9 10 10 9 9 11 10 6 6 7 6 5 5 6 7 6 4 3 1 2 3 2 2 2 1 2 2 4 4 3 2 3 5 5 4 3 5 8 8 4 1 3 2 -1 2 6 7 14 17 7 6 20 24 14 8 10 9 11 13 10 9 10 5 0 3 5 2 2 5 6 6 5 4
7 7 6 5 5 5 6 6 6 6 5 6 8 9 9 7 8 11 9 5 6 7 6 6 6 7 7 6 4 2 1 1 0 0 1 1 1 3 3 3 4 4 3 2 1 2 3 2 0 0 -0 -4 -4 2 4 4 6 8 10 16 18 11 13 24 27 20 14 9 4 4 5 4 5 4 -2 -4 2 3 1 5 11 11 9 7 7
5 5 4 4 3 3 3 4 6 6 5 5 7 7 7 6 7 9 7 5 7 9 7 6 6 7 5 3 3 2 1 1 1 1 2 2 3 2 2 3 5 4 2 -1 -2 1 1 -4 -4 0 -2 -7 -2 9 11 7 11 17 15 12 10 8 10 14 14 11 10 8 6 6 6 7 5 -0 -2 4 9 6 4 7 8 5 7 7 5
5 4 5 5 5 5 4 4 5 6 5 5 6 7 6 6 7 8 5 4 5 7 8 7 7 7 5 3 3 3 1 1 1 1 3 3 2 1 2 4 2 2 4 2 -1 4 2 -6 -4 5 5 3 5 9 8 7 17 24 15 4 4 8 11 13 12 12 14 12 8 7 9 8 4 5 12 17 14 8 5 7 8 7 7 7 4
9 8 9 10 9 9 7 5 6 7 6 6 5 7 7 6 7 6 4 4 5 6 7 7 7 8 6 5 5 3 1 2 1 3 4 2 1 1 1 1 1 2 6 4 1 5 5 -0 -0 5 8 8 7 7 9 9 7 5 1 1 7 9 8 9 8 9 15 15 10 11 14 11 6 8 13 15 16 16 13 10 10 8 6 6 6
Height
5931 5931 5931 5931 5931 5930 5930 5930 5931 5931 5931 5931 5931 5931 5931 5931 5931 5931 5931 5932 5932 5932 5933 5932 5932 5932 5932 5932 5932 5932 5932 5932 5931 5931 5931 5931 5931 5931 5931 5931 5931 5931 5931 5931 5931 5931 5931 5931 5931 5931 5930 5930 5930 5930 5930 5930 5930 5930 5930 5930 5930 5930 5930 5930 5929 5929 5929 5928 5928 5928 5928 5927 5927 5926 5926 5925 5925 5924 5923 5922 5922 5921 5919 5918 5917
5932 5932 5932 5932 5932 5932 5931 5931 5932 5932 5932 5932 5932 5932 5931 5931 5931 5932 5932 5932 5933 5933 5933 5933 5933 5933 5934 5934 5933 5933 5933 5933 5933 5933 5933 5933 5933 5933 5933 5933 5933 5933 5933 5932 5932 5932 5932 5932 5932 5932 5932 5932 5932 5932 5932 5932 5932 5932 5932 5931 5931 5931 5931 5931 5930 5930 5929 5929 5929 5929 5928 5928 5928 5927 5927 5926 5926 5925 5924 5923 5922 5921 5920 5919 5918
5933 5934 5933 5933 5933 5933 5932 5932 5932 5933 5933 5933 5933 5933 5932 5932 5932 5932 5932 5933 5934 5934 5934 5934 5934 5934 5935 5935 5935 5934 5934 5934 5934 5934 5934 5934 5934 5934 5934 5934 5935 5935 5935 5934 5934 5934 5934 5934 5934 5934 5934 5933 5933 5933 5933 5933 5933 5933 5933 5933 5933 5932 5932 5932 5931 5931 5930 5930 5930 5930 5929 5929 5929 5928 5928 5927 5926 5926 5925 5924 5923 5922 5921 5919 5918
5935 5935 5935 5935 5935 5934 5933 5933 5933 5934 5934 5934 5934 5934 5934 5933 5933 5933 5933 5934 5934 5935 5934 5934 5934 5935 5935 5935 5935 5935 5936 5936 5935 5935 5935 5935 5935 5935 5935 5936 5936 5936 5936 5936 5936 5936 5936 5936 5936 5936 5935 5935 5935 5935 5935 5935 5935 5935 5934 5934 5934 5934 5933 5933 5932 5932 5932 5931 5931 5931 5930 5930 5930 5929 5929 5928 5927 5927 5926 5925 5924 5923 5921 5920 5918
5936 5936 5936 5936 5936 5935 5935 5934 5934 5935 5935 5935 5935 5935 5935 5935 5934 5934 5934 5935 5935 5935 5935 5935 5935 5935 5936 5936 5936 5936 5937 5937 5937 5937 5936 5936 5936 5937 5937 5937 5937 5938 5938 5937 5937 5937 5937 5937 5937 5937 5937 5937 5937 5936 5936 5936 5936 5936 5936 5935 5935 5935 5935 5934 5934 5934 5933 5933 5932 5932 5931 5931 5931 5930 5929 5929 5928 5927 5927 5926 5925 5923 5922 5920 5919
5937 5937 5937 5937 5937 5936 5936 5936 5936 5936 5937 5937 5937 5937 5937 5936 5936 5936 5936 5936 5936 5936 5936 5936 5936 5936 5937 5937 5937 5937 5938 5938 5938 5938 5938 5938 5938 5938 5938 5938 5938 5939 5939 5939 5939 5939 5939 5939 5939 5938 5938 5938 5938 5938 5938 5938 5937 5937 5937 5937 5937 5936 5936 5936 5936 5935 5934 5934 5933 5933 5932 5932 5931 5931 5930 5930 5929 5928 5927 5926 5925 5924 5922 5920 5919
5938 5938 5938 5938 5938 5938 5937 5937 5937 5938 5938 5938 5938 5938 5938 5938 5937 5937 5937 5937 5937 5937 5937 5937 5937 5937 5937 5937 5938 5938 5938 5939 5939 5939 5939 5939 5939 5939 5940 5940 5940 5940 5940 5940 5940 5940 5940 5940 5940 5940 5940 5939 5939 5939 5939 5939 5939 5939 5939 5938 5938 5938 5938 5937 5937 5936 5935 5935 5934 5934 5933 5933 5932 5931 5931 5930 5929 5929 5928 5926 5925 5924 5922 5920 5919
5939 5939 5939 5939 5939 5939 5939 5939 5939 5940 5940 5940 5940 5940 5940 5939 5939 5938 5938 5939 5939 5938 5938 5938 5939 5939 5938 5939 5939 5939 5939 5940 5940 5941 5941 5941 5941 5941 5941 5941 5942 5942 5942 5941 5941 5941 5941 5941 5941 5941 5941 5941 5941 5940 5940 5940 5940 5940 5940 5940 5940 5939 5939 5938 5938 5937 5936 5935 5935 5934 5933 5933 5932 5932 5931 5931 5930 5929 5928 5927 5925 5924 5922 5920 5919
5940 5940 5940 5940 5941 5941 5941 5941 5941 5941 5942 5942 5942 5942 5941 5941 5940 5940 5940 5940 5940 5939 5939 5939 5939 5940 5940 5940 5940 5940 5940 5941 5941 5942 5942 5942 5942 5943 5943 5943 5943 5944 5943 5943 5943 5943 5943 5942 5942 5942 5942 5942 5942 5942 5942 5942 5941 5941 5941 5941 5940 5940 5939 5939 5938 5937 5937 5936 5935 5934 5934 5933 5933 5932 5932 5931 5930 5929 5928 5927 5925 5924 5922 5921 5919
5941 5942 5942 5942 5942 5942 5942 5942 5943 5943 5944 5944 5943 5943 5942 5942 5941 5941 5941 5941 5940 5940 5940 5940 5941 5941 5941 5941 5941 5941 5941 5942 5943 5944 5944 5944 5944 5944 5945 5945 5945 5945 5945 5945 5945 5945 5944 5944 5944 5944 5943 5943 5943 5943 5943 5943 5942 5942 5942 5941 5941 5940 5940 5939 5938 5937 5937 5936 5935 5934 5934 5934 5933 5933 5932 5932 5931 5929 5928 5927 5925 5924 5923 5921 5920
5942 5943 5943 5943 5943 5943 5944 5944 5944 5945 5945 5945 5945 5944 5944 5943 5943 5943 5942 5942 5942 5942 5942 5942 5942 5942 5942 5942 5942 5942 5942 5943 5944 5945 5945 5945 5946 5946 5947 5947 5947 5947 5947 5946 5946 5946 5946 5946 5945 5945 5945 5945 5945 5944 5944 5944 5944 5943 5943 5942 5941 5941 5940 5939 5938 5937 5937 5936 5935 5934 5934 5933 5933 5933 5932 5931 5930 5929 5928 5927 5926 5924 5923 5922 5920
5943 5944 5944 5945 5945 5945 5945 5945 5946 5946 5947 5946 5946 5946 5945 5945 5945 5945 5944 5944 5944 5944 5944 5944 5944 5944 5944 5944 5944 5944 5944 5945 5945 5946 5946 5947 5947 5948 5948 5949 5948 5948 5948 5948 5948 5948 5947 5947 5947 5947 5946 5946 5946 5946 5945 5945 5945 5944 5944 5943 5942 5942 5941 5940 5939 5938 5937 5936 5935 5934 5934 5933 5933 5932 5932 5931 5930 5929 5928 5927 5926 5925 5923 5922 5920
5944 5945 5945 5946 5946 5946 5946 5947 5947 5948 5948 5948 5947 5947 5947 5947 5946 5946 5946 5946 5946 5946 5946 5945 5945 5945 5945 5945 5945 5946 5946 5946 5946 5947 5947 5948 5949 5950 5950 5950 5950 5949 5949 5949 5949 5949 5949 5949 5948 5948 5948 5947 5947 5947 5947 5946 5946 5945 5945 5944 5943 5943 5942 5941 5940 5938 5937 5936 5935 5934 5934 5933 5933 5933 5932 5931 5930 5929 5928 5927 5926 5925 5923 5922 5920
5944 5945 5946 5946 5947 5947 5947 5948 5948 5949 5949 5949 5949 5948 5948 5948 5948 5948 5948 5948 5947 5947 5947 5947 5947 5946 5947 5947 5947 5948 5948 5948 5948 5948 5948 5949 5950 5951 5951 5951 5951 5951 5951 5951 5951 5950 5950 5950 5950 5949 5949 5949 5948 5948 5947 5947 5947 5946 5946 5945 5944 5943 5942 5941 5940 5939 5937 5936 5935 5934 5934 5934 5933 5933 5932 5932 5931 5930 5928 5927 5926 5925 5923 5921 5920
5944 5945 5946 5947 5947 5948 5948 5949 5949 5950 5950 5950 5950 5949 5949 5949 5949 5949 5949 5949 5949 5949 5949 5949 5948 5948 5948 5948 5949 5949 5949 5949 5949 5949 5950 5951 5951 5952 5952 5952 5952 5952 5952 5952 5952 5952 5951 5951 5951 5950 5950 5950 5949 5948 5948 5948 5947 5947 5946 5946 5945 5944 5943 5942 5940 5939 5938 5936 5935 5935 5934 5934 5934 5933 5932 5932 5931 5930 5929 5927 5926 5924 5922 5921 5919
5944 5946 5947 5947 5948 5949 5949 5950 5950 5950 5950 5950 5950 5950 5950 5950 5950 5950 5951 5951 5951 5951 5951 5950 5950 5949 5949 5950 5950 5951 5950 5950 5951 5951 5952 5952 5952 5952 5952 5953 5953 5953 5953 5953 5953 5953 5952 5952 5951 5951 5951 5950 5950 5949 5948 5948 5948 5947 5946 5946 5945 5944 5943 5942 5941 5940 5938 5937 5936 5935 5934 5934 5934 5933 5932 5932 5931 5929 5928 5927 5925 5923 5922 5920 5918
5945 5946 5947 5948 5949 5950 5950 5950 5950 5950 5951 5951 5951 5951 5951 5951 5951 5951 5952 5952 5952 5952 5952 5952 5952 5951 5951 5951 5951 5952 5952 5952 5952 5953 5953 5953 5953 5953 5953 5953 5954 5954 5954 5954 5954 5953 5953 5953 5952 5952 5951 5951 5950 5949 5949 5948 5948 5947 5946 5946 5945 5944 5943 5942 5941 5940 5939 5938 5937 5936 5935 5934 5934 5933 5932 5931 5930 5929 5928 5926 5924 5923 5921 5919 5917
5945 5946 5947 5948 5949 5950 5950 5951 5951 5951 5951 5951 5951 5952 5952 5952 5952 5952 5953 5953 5953 5953 5953 5953 5953 5953 5953 5953 5953 5953 5953 5953 5953 5954 5954 5954 5954 5954 5954 5954 5954 5954 5954 5954 5954 5954 5953 5953 5952 5952 5951 5951 5950 5950 5949 5948 5948 5947 5946 5945 5945 5944 5943 5942 5941 5940 5939 5938 5937 5936 5935 5934 5933 5932 5931 5930 5929 5928 5927 5925 5924 5922 5920 5918 5916
5945 5946 5947 5948 5949 5950 5950 5951 5951 5951 5952 5952 5952 5952 5952 5953 5953 5953 5953 5954 5954 5954 5955 5955 5955 5954 5954 5954 5954 5954 5955 5955 5955 5955 5955 5955 5955 5955 5955 5955 5955 5955 5955 5954 5954 5954 5953 5953 5952 5952 5951 5951 5950 5950 5949 5948 5948 5947 5946 5945 5944 5944 5943 5942 5941 5940 5939 5938 5937 5936 5935 5934 5933 5932 5931 5930 5928 5927 5926 5925 5923 5921 5919 5917 5914
5945 5946 5947 5948 5949 5950 5951 5951 5951 5952 5952 5952 5952 5952 5953 5953 5953 5954 5954 5954 5955 5955 5956 5956 5956 5956 5956 5956 5956 5956 5956 5956 5956 5956 5956 5956 5956 5956 5956 5956 5955 5955 5955 5955 5954 5954 5953 5953 5952 5952 5951 5951 5951 5950 5949 5949 5948 5947 5946 5945 5945 5944 5943 5942 5941 5940 5939 5938 5937 5936 5935 5934 5932 5931 5930 5929 5928 5927 5925 5924 5923 5921 5918 5916 5913
5946 5946 5947 5948 5949 5950 5951 5951 5951 5952 5952 5952 5952 5953 5953 5953 5954 5954 5955 5955 5955 5956 5956 5957 5957 5957 5957 5957 5957 5957 5957 5957 5957 5957 5956 5956 5956 5956 5956 5956 5956 5955 5955 5955 5955 5954 5953 5953 5952 5952 5951 5951 5951 5950 5950 5949 5948 5947 5946 5945 5945 5944 5943 5942 5941 5940 5939 5938 5937 5936 5935 5933 5932 5931 5930 5929 5928 5926 5925 5924 5922 5920 5917 5915 5913
5946 5946 5947 5948 5949 5950 5950 5951 5951 5952 5952 5952 5952 5953 5953 5953 5954 5954 5955 5955 5955 5956 5956 5957 5958 5957 5957 5957 5957 5958 5958 5958 5957 5957 5957 5957 5957 5956 5956 5956 5956 5956 5955 5955 5955 5954 5953 5953 5952 5952 5952 5951 5951 5950 5950 5949 5948 5947 5946 5946 5945 5944 5943 5942 5941 5940 5939 5938 5937 5936 5934 5933 5932 5931 5930 5929 5928 5926 5925 5923 5921 5919 5917 5915 5912
5946 5946 5947 5948 5949 5949 5950 5951 5951 5952 5952 5952 5953 5953 5953 5954 5954 5954 5955 5955 5955 5956 5956 5957 5958 5958 5958 5958 5958 5958 5958 5958 5957 5957 5957 5957 5957 5957 5957 5956 5956 5956 5955 5955 5955 5954 5953 5953 5952 5952 5952 5952 5951 5950 5949 5949 5948 5947 5946 5946 5945 5944 5943 5942 5941 5940 5939 5938 5937 5936 5935 5934 5932 5931 5930 5929 5928 5926 5924 5922 5920 5918 5916 5914 5911
5945 5946 5946 5947 5948 5949 5950 5950 5951 5952 5952 5953 5953 5953 5954 5954 5954 5954 5955 5955 5956 5956 5957 5957 5958 5958 5958 5958 5958 5958 5958 5958 5957 5957 5957 5957 5957 5957 5957 5957 5956 5956 5955 5955 5955 5954 5954 5953 5953 5953 5952 5952 5951 5950 5950 5949 5948 5947 5947 5946 5945 5944 5943 5942 5942 5941 5940 5939 5938 5937 5935 5934 5933 5932 5931 5929 5928 5926 5924 5921 5919 5917 5915 5913 5910
5945 5945 5946 5947 5948 5948 5949 5950 5951 5952 5953 5953 5954 5954 5954 5954 5954 5955 5955 5955 5956 5956 5957 5957 5958 5958 5958 5958 5958 5958 5958 5958 5957 5957 5957 5957 5957 5957 5957 5957 5957 5956 5955 5955 5955 5955 5954 5954 5953 5953 5952 5952 5951 5950 5950 5949 5949 5948 5947 5946 5945 5944 5944 5943 5942 5942 5941 5939 5938 5937 5936 5935 5934 5932 5931 5929 5927 5925 5923 5921 5918 5916 5914 5911 5909
5944 5945 5946 5947 5948 5948 5949 5950 5950 5951 5953 5953 5954 5955 5955 5955 5955 5955 5955 5956 5956 5957 5957 5957 5958 5958 5958 5958 5958 5958 5957 5957 5957 5957 5957 5957 5957 5957 5957 5957 5956 5956 5955 5955 5955 5955 5954 5954 5953 5953 5952 5952 5951 5951 5950 5950 5949 5948 5947 5946 5946 5945 5944 5944 5943 5942 5941 5940 5939 5938 5937 5935 5934 5932 5931 5929 5927 5924 5922 5920 5917 5915 5913 5910 5908
5944 5945 5946 5947 5948 5948 5949 5950 5950 5951 5952 5953 5954 5955 5955 5955 5956 5956 5956 5956 5956 5957 5957 5958 5958 5958 5958 5958 5958 5957 5957 5957 5957 5957 5957 5957 5957 5957 5956 5956 5956 5955 5955 5955 5955 5955 5954 5954 5953 5953 5952 5952 5952 5951 5950 5950 5949 5949 5948 5947 5946 5946 5945 5944 5943 5942 5941 5940 5939 5938 5936 5935 5933 5932 5930 5928 5925 5923 5921 5919 5917 5915 5912 5910 5907
5943 5944 5945 5947 5948 5948 5949 5950 5950 5951 5952 5953 5954 5954 5955 5955 5956 5956 5956 5956 5957 5957 5957 5958 5958 5958 5958 5958 5958 5957 5957 5957 5957 5957 5956 5957 5957 5957 5957 5956 5955 5955 5955 5955 5955 5955 5954 5954 5953 5953 5953 5952 5952 5952 5951 5950 5950 5949 5948 5947 5947 5946 5945 5944 5943 5942 5941 5940 5939 5937 5936 5934 5933 5931 5929 5926 5924 5922 5920 5918 5916 5914 5911 5909 5906
5944 5944 5945 5946 5947 5948 5949 5950 5950 5951 5952 5952 5953 5954 5955 5955 5955 5956 5956 5956 5956 5957 5957 5957 5957 5958 5958 5958 5958 5957 5957 5957 5957 5957 5956 5956 5956 5956 5956 5956 5955 5955 5955 5955 5955 5955 5954 5954 5954 5953 5953 5952 5952 5951 5951 5950 5950 5949 5948 5947 5946 5945 5944 5944 5943 5942 5940 5939 5938 5936 5935 5933 5931 5929 5927 5925 5923 5921 5919 5917 5915 5912 5910 5908 5905
5944 5944 5945 5946 5947 5948 5949 5949 5950 5951 5951 5952 5953 5953 5954 5954 5955 5955 5955 5955 5955 5956 5956 5956 5957 5957 5957 5957 5957 5957 5957 5957 5956 5956 5956 5956 5956 5955 5955 5955 5955 5955 5955 5955 5955 5954 5954 5954 5953 5953 5952 5952 5951 5951 5950 5950 5949 5948 5947 5947 5946 5945 5944 5943 5942 5941 5940 5938 5937 5935 5934 5932 5930 5928 5926 5924 5922 5920 5918 5916 5913 5911 5909 5906 5904
5943 5944 5945 5946 5947 5948 5949 5949 5950 5950 5950 5951 5952 5952 5953 5953 5954 5954 5954 5954 5955 5955 5955 5956 5956 5956 5957 5957 5957 5957 5956 5956 5956 5955 5955 5955 5955 5955 5954 5954 5955 5955 5955 5955 5955 5954 5954 5953 5953 5952 5952 5951 5951 5950 5950 5949 5949 5948 5947 5946 5945 5944 5943 5942 5941 5940 5938 5937 5936 5934 5932 5931 5929 5927 5925 5923 5921 5919 5917 5915 5912 5910 5908 5905 5903
5943 5944 5945 5946 5947 5947 5948 5949 5949 5950 5950 5950 5951 5951 5952 5952 5953 5953 5953 5954 5954 5954 5954 5954 5955 5955 5956 5956 5956 5956 5956 5955 5955 5954 5954 5955 5955 5954 5954 5954 5955 5955 5955 5954 5954 5954 5953 5953 5953 5952 5952 5951 5950 5950 5949 5949 5948 5947 5946 5945 5944 5943 5942 5941 5939 5938 5937 5935 5934 5932 5931 5929 5927 5925 5923 5921 5920 5918 5916 5914 5911 5909 5907 5905 5902
5942 5943 5944 5945 5946 5947 5948 5948 5949 5949 5949 5950 5950 5951 5951 5951 5952 5952 5952 5952 5953 5953 5953 5953 5954 5954 5955 5955 5955 5955 5955 5954 5954 5954 5954 5954 5954 5954 5953 5954 5954 5954 5954 5954 5954 5954 5953 5953 5952 5952 5951 5951 5950 5949 5949 5948 5947 5946 5945 5944 5943 5942 5941 5940 5938 5937 5935 5934 5932 5930 5929 5927 5926 5924 5922 5920 5919 5917 5915 5913 5911 5908 5906 5904 5902
5941 5942 5943 5944 5945 5946 5947 5948 5948 5948 5949 5949 5949 5950 5950 5950 5951 5951 5951 5951 5951 5951 5952 5952 5952 5953 5954 5954 5954 5954 5954 5953 5953 5953 5953 5953 5953 5953 5953 5953 5953 5953 5953 5953 5953 5953 5953 5953 5952 5951 5950 5950 5949 5948 5948 5947 5946 5945 5944 5943 5942 5941 5940 5938 5937 5935 5934 5932 5930 5929 5927 5926 5924 5923 5921 5919 5918 5916 5914 5912 5910 5907 5905 5903 5901
5940 5941 5942 5943 5944 5945 5946 5947 5947 5947 5948 5948 5948 5948 5949 5949 5949 5950 5950 5950 5950 5950 5950 5950 5951 5952 5953 5953 5953 5953 5953 5952 5952 5952 5952 5952 5952 5953 5953 5953 5953 5953 5953 5953 5953 5952 5952 5952 5951 5950 5950 5949 5948 5947 5947 5946 5945 5944 5943 5942 5941 5939 5938 5937 5935 5933 5932 5931 5929 5927 5926 5924 5923 5921 5920 5918 5917 5915 5913 5911 5908 5906 5904 5902 5900
5938 5939 5940 5941 5942 5944 5945 5945 5946 5946 5946 5947 5947 5947 5947 5947 5948 5948 5948 5948 5948 5948 5949 5949 5949 5950 5951 5952 5952 5952 5952 5952 5951 5951 5952 5952 5952 5952 5952 5952 5952 5952 5952 5952 5951 5951 5951 5950 5950 5949 5949 5948 5947 5946 5945 5944 5943 5942 5942 5940 5939 5938 5937 5935 5934 5932 5931 5929 5928 5927 5925 5923 5922 5920 5918 5916 5914 5912 5911 5909 5906 5904 5902 5900 5898
5936 5937 5939 5940 5941 5942 5943 5943 5944 5944 5945 5945 5946 5946 5946 5946 5946 5947 5947 5947 5947 5947 5947 5948 5948 5949 5949 5950 5950 5950 5950 5950 5951 5951 5951 5951 5952 5952 5952 5952 5952 5951 5951 5951 5951 5950 5949 5949 5948 5947 5947 5946 5945 5944 5943 5942 5942 5941 5940 5939 5938 5936 5935 5934 5932 5931 5930 5928 5926 5925 5923 5922 5920 5918 5916 5913 5911 5909 5907 5906 5904 5901 5900 5898 5896
5934 5936 5937 5938 5939 5940 5940 5941 5942 5942 5943 5944 5944 5945 5945 5945 5945 5945 5945 5945 5945 5946 5946 5946 5947 5947 5948 5948 5948 5948 5949 5949 5950 5950 5951 5951 5951 5952 5952 5952 5951 5951 5951 5951 5950 5950 5949 5948 5947 5946 5946 5945 5944 5943 5941 5940 5939 5938 5937 5936 5935 5934 5933 5932 5931 5929 5928 5926 5924 5922 5921 5919 5917 5915 5913 5911 5908 5906 5904 5903 5901 5899 5897 5896 5894
5932 5934 5935 5936 5937 5938 5938 5939 5940 5940 5941 5942 5942 5943 5943 5943 5943 5943 5944 5944 5944 5944 5944 5945 5945 5946 5946 5947 5947 5947 5947 5948 5948 5949 5950 5950 5950 5951 5951 5951 5951 5950 5950 5950 5949 5949 5948 5947 5947 5946 5945 5943 5942 5941 5940 5938 5937 5936 5935 5934 5934 5932 5930 5929 5929 5927 5925 5924 5923 5921 5918 5916 5915 5913 5911 5909 5906 5904 5901 5900 5898 5896 5895 5893 5892
5931 5932 5933 5935 5935 5936 5937 5938 5938 5939 5940 5940 5940 5941 5941 5941 5942 5942 5942 5942 5942 5943 5943 5943 5944 5945 5945 5945 5945 5946 5946 5947 5947 5948 5948 5948 5949 5949 5949 5949 5949 5949 5948 5948 5948 5947 5947 5946 5945 5944 5944 5942 5941 5940 5938 5937 5936 5935 5933 5932 5932 5931 5929 5927 5926 5924 5921 5920 5920 5919 5917 5914 5912 5911 5909 5906 5904 5901 5898 5897 5895 5893 5892 5891 5889
5928 5930 5931 5933 5934 5935 5936 5936 5937 5937 5938 5938 5938 5939 5939 5939 5940 5940 5940 5940 5941 5941 5942 5942 5943 5943 5944 5944 5944 5945 5945 5946 5946 5946 5947 5947 5947 5948 5947 5947 5947 5947 5947 5946 5946 5945 5945 5944 5944 5943 5942 5941 5939 5938 5937 5935 5934 5933 5932 5930 5930 5929 5927 5926 5924 5922 5919 5917 5916 5916 5915 5911 5909 5909 5906 5904 5901 5898 5895 5894 5892 5890 5889 5888 5886
5926 5927 5929 5931 5932 5933 5934 5935 5936 5936 5936 5936 5936 5937 5937 5938 5938 5938 5939 5939 5939 5940 5940 5941 5942 5942 5942 5943 5943 5944 5944 5945 5945 5945 5945 5946 5946 5946 5946 5946 5946 5946 5945 5945 5944 5943 5943 5942 5942 5941 5940 5939 5937 5936 5935 5934 5933 5932 5930 5928 5927 5926 5924 5923 5923 5920 5917 5914 5913 5913 5912 5908 5905 5904 5903 5902 5899 5896 5893 5891 5889 5886 5885 5884 5882
5923 5925 5927 5929 5930 5932 5933 5934 5934 5935 5935 5934 5934 5935 5935 5936 5936 5937 5937 5937 5938 5939 5939 5940 5941 5941 5941 5942 5942 5943 5943 5944 5944 5944 5944 5944 5944 5945 5945 5945 5945 5945 5944 5943 5943 5942 5941 5940 5940 5938 5938 5937 5936 5934 5934 5932 5931 5929 5927 5926 5924 5923 5921 5920 5920 5918 5915 5912 5910 5908 5907 5903 5899 5899 5899 5897 5895 5893 5890 5888 5886 5883 5881 5879 5878
5921 5923 5925 5927 5928 5930 5931 5932 5933 5933 5933 5933 5933 5933 5934 5934 5935 5935 5935 5936 5937 5938 5939 5939 5940 5940 5941 5941 5941 5942 5942 5942 5942 5942 5942 5942 5943 5943 5943 5943 5943 5943 5943 5942 5941 5940 5939 5938 5938 5937 5935 5935 5934 5933 5931 5930 5928 5926 5925 5922 5920 5918 5917 5916 5915 5915 5914 5911 5906 5903 5902 5899 5894 5893 5895 5894 5891 5889 5887 5885 5883 5880 5877 5875 5874
5920 5922 5924 5925 5926 5928 5929 5931 5931 5932 5932 5932 5932 5932 5932 5933 5933 5933 5934 5935 5936 5937 5938 5939 5939 5940 5940 5940 5940 5940 5940 5941 5941 5941 5940 5940 5940 5941 5941 5942 5942 5942 5941 5940 5938 5937 5936 5935 5935 5935 5933 5932 5932 5931 5928 5926 5925 5923 5921 5918 5915 5912 5911 5910 5911 5913 5912 5907 5901 5898 5899 5898 5893 5889 5890 5890 5887 5885 5883 5881 5879 5876 5874 5871 5869
5919 5921 5922 5923 5925 5926 5927 5928 5929 5930 5930 5930 5931 5931 5931 5931 5931 5932 5933 5934 5935 5937 5937 5938 5938 5939 5939 5939 5939 5939 5939 5939 5939 5939 5938 5938 5938 5938 5939 5939 5940 5940 5939 5938 5936 5934 5933 5932 5932 5932 5931 5929 5928 5927 5925 5921 5919 5918 5915 5911 5906 5903 5904 5906 5910 5911 5910 5904 5896 5892 5893 5895 5890 5886 5887 5886 5882 5880 5879 5877 5874 5872 5870 5868 5865
5917 5919 5920 5921 5923 5924 5925 5926 5927 5928 5928 5928 5929 5929 5929 5929 5930 5931 5932 5933 5935 5935 5936 5937 5937 5937 5937 5937 5938 5937 5937 5938 5937 5936 5936 5935 5935 5936 5936 5937 5938 5938 5938 5936 5934 5932 5930 5929 5929 5930 5928 5926 5924 5924 5921 5916 5914 5913 5908 5903 5900 5899 5903 5907 5908 5908 5907 5902 5894 5888 5888 5890 5886 5882 5883 5882 5877 5875 5875 5872 5870 5868 5865 5864 5862
5915 5916 5918 5919 5921 5922 5922 5923 5925 5926 5926 5926 5926 5927 5927 5927 5928 5930 5931 5932 5933 5934 5934 5935 5935 5936 5936 5936 5936 5936 5936 5936 5935 5934 5933 5933 5933 5934 5933 5933 5934 5935 5935 5933 5931 5929 5927 5927 5927 5926 5924 5922 5920 5919 5916 5911 5908 5904 5899 5899 5901 5901 5904 5906 5905 5904 5903 5899 5893 5885 5884 5887 5884 5878 5878 5877 5872 5870 5870 5867 5864 5862 5860 5858 5857
5913 5914 5916 5917 5918 5919 5920 5921 5923 5923 5923 5923 5924 5924 5924 5925 5926 5928 5929 5930 5931 5932 5932 5933 5933 5934 5934 5934 5934 5934 5934 5933 5932 5931 5930 5930 5931 5931 5930 5930 5931 5932 5931 5929 5928 5926 5925 5925 5924 5922 5920 5918 5916 5914 5911 5906 5902 5897 5896 5901 5902 5899 5901 5902 5900 5900 5899 5896 5891 5883 5879 5883 5881 5874 5871 5870 5867 5866 5865 5862 5859 5857 5854 5852 5851
5910 5912 5913 5914 5916 5917 5918 5919 5920 5920 5920 5920 5921 5922 5922 5923 5924 5926 5927 5928 5929 5930 5930 5930 5931 5932 5932 5932 5931 5932 5932 5931 5930 5929 5928 5927 5928 5928 5927 5926 5927 5929 5928 5926 5925 5925 5924 5923 5920 5918 5916 5914 5912 5910 5908 5903 5897 5895 5897 5901 5898 5894 5895 5895 5893 5893 5894 5894 5888 5880 5876 5877 5875 5869 5866 5864 5861 5861 5860 5856 5854 5852 5849 5847 5846
5908 5909 5910 5912 5913 5914 5915 5916 5917 5918 5918 5918 5919 5919 5920 5920 5922 5923 5924 5926 5927 5928 5928 5928 5929 5930 5930 5930 5929 5929 5929 5928 5928 5927 5926 5925 5925 5924 5923 5922 5923 5924 5924 5922 5923 5923 5922 5920 5917 5915 5914 5912 5909 5907 5905 5901 5896 5894 5894 5895 5892 5889 5889 5889 5886 5884 5886 5888 5884 5875 5871 5871 5867 5863 5860 5856 5854 5855 5854 5851 5848 5846 5844 5843 5841